Theta_e
336 335 334 334 333 332 333 332 331 332 333 334 336 337 338 337 338 337 337 337 337 337 336 336 335 334 334 333 331 329 329 330 331 332 331 330 327 324 326 326 326 327 328 328 329 330 330 330 330 331 331 331 331 331 331 331 330 330 329 329 328 328 329 329 329 329 328 329 329 330 330 330 331 331 330 330 329 329 328 322 315 314 317 320 322
335 335 334 334 333 333 333 333 332 332 333 334 334 335 336 336 336 337 336 336 336 335 335 335 334 333 333 332 329 327 327 327 328 329 330 330 328 325 326 328 329 329 330 330 330 330 330 330 330 330 330 330 331 331 331 331 330 330 330 329 329 328 328 328 329 329 328 327 329 330 330 330 330 331 331 330 330 329 329 327 320 315 316 319 321
335 334 334 334 334 334 334 334 333 331 332 333 332 333 333 332 333 333 334 335 334 333 333 333 333 332 331 329 328 327 326 326 326 326 327 328 328 327 327 328 330 330 330 330 330 329 329 329 329 329 328 328 328 329 329 329 329 329 328 328 328 328 328 328 329 329 329 328 328 329 329 329 330 331 331 330 331 330 329 330 326 319 315 317 321
334 334 334 334 333 333 334 334 333 332 332 332 332 332 332 330 330 330 330 331 331 331 331 331 332 331 329 327 327 326 326 326 325 325 326 327 327 327 327 327 328 328 329 328 328 328 328 327 327 327 327 327 327 327 327 327 327 327 327 326 326 327 327 328 328 328 328 328 328 328 328 328 328 329 330 330 330 330 329 330 329 324 317 315 319
333 334 335 334 333 333 333 332 332 332 332 332 332 332 331 330 329 329 328 329 329 329 331 331 330 329 327 327 326 326 325 325 325 325 326 327 327 327 327 326 326 326 326 326 326 325 325 325 325 325 325 325 325 325 325 325 325 325 325 325 325 325 325 325 326 326 326 326 327 327 327 327 328 328 329 330 330 330 330 329 330 328 323 316 317
333 334 334 334 334 333 332 332 332 332 331 331 331 331 330 330 330 330 330 330 329 329 331 330 329 327 326 325 324 324 324 324 325 325 325 326 326 326 325 325 324 323 323 322 321 320 320 319 320 320 321 322 322 323 323 323 323 323 323 323 323 323 322 323 323 323 323 324 325 325 325 326 326 326 326 328 330 330 330 329 329 330 328 321 317
333 333 334 334 334 332 331 331 331 331 330 329 330 331 330 329 330 330 331 330 329 329 330 329 327 326 325 324 323 323 323 324 324 325 325 325 325 324 323 321 320 318 316 314 312 311 310 309 309 310 310 312 312 314 315 316 316 316 317 318 318 318 319 319 320 320 321 321 322 322 323 323 323 323 324 325 328 329 329 330 330 329 330 326 320
333 333 333 334 332 331 331 330 330 331 330 330 331 331 330 328 328 328 329 329 327 327 329 327 324 325 324 323 322 322 323 323 324 324 323 323 322 321 319 316 312 309 307 305 304 302 302 301 301 301 301 302 302 303 304 306 306 306 306 307 308 309 310 312 314 315 316 317 319 320 320 321 321 322 321 323 326 329 330 330 330 329 330 329 326
334 333 332 332 331 331 331 330 331 331 330 331 332 330 328 326 325 325 324 324 323 324 324 323 323 323 322 321 321 322 322 322 322 322 321 320 318 314 310 306 303 301 300 300 300 299 299 299 299 299 299 299 299 299 299 299 300 300 300 300 301 302 302 304 306 307 309 310 313 315 316 318 319 320 320 321 323 326 329 330 329 329 330 330 329
334 333 332 331 330 332 331 330 331 331 331 331 331 329 328 326 324 322 321 320 320 321 319 318 319 319 319 319 320 321 321 320 320 319 317 313 309 304 301 300 300 299 299 299 299 299 299 299 299 299 299 299 299 299 299 299 299 299 299 299 299 299 299 299 300 300 301 302 304 307 309 312 316 318 319 321 322 323 326 329 329 329 330 329 330
332 332 332 332 332 331 331 331 331 331 332 332 330 329 327 324 321 318 316 315 315 316 315 314 315 317 317 318 320 320 319 319 317 314 309 304 301 300 299 299 299 299 299 299 299 299 299 298 298 298 298 298 298 298 299 299 299 299 299 298 298 298 298 298 298 298 298 298 299 300 302 305 309 313 316 319 321 322 323 325 327 329 329 329 330
330 331 330 332 332 331 330 331 331 331 331 331 330 328 325 321 317 314 313 313 312 312 312 312 314 316 317 318 318 318 318 317 313 307 302 300 299 299 299 299 299 299 299 299 298 298 298 298 298 298 298 298 298 298 298 298 298 299 298 298 298 298 298 298 298 298 298 298 298 298 298 299 301 305 310 315 319 321 321 322 324 326 326 327 329
332 332 331 331 332 332 331 329 329 329 329 329 327 325 320 317 314 312 312 311 311 311 311 313 315 316 318 318 318 319 318 313 306 302 300 299 299 299 299 299 298 298 298 298 298 298 298 298 298 298 298 298 298 298 298 298 298 298 298 298 298 298 298 298 298 298 298 298 298 298 298 298 298 299 302 306 312 316 319 320 321 322 324 325 326
332 332 332 332 332 331 330 328 327 326 326 325 322 319 316 313 312 312 311 309 309 309 309 316 321 320 319 320 319 318 314 306 301 300 299 299 299 298 298 298 298 298 298 298 298 297 297 297 297 297 297 297 297 297 297 297 298 298 298 298 298 298 298 298 298 298 298 298 298 298 298 298 298 298 298 299 302 306 311 315 318 320 321 322 324
332 332 332 332 331 329 329 327 326 324 323 320 316 314 312 312 311 309 308 306 305 305 305 314 324 325 322 323 322 320 315 309 303 299 299 299 298 298 298 298 298 298 297 297 297 297 297 297 297 297 297 297 297 297 297 297 297 297 297 298 298 298 298 298 298 298 298 298 298 298 298 298 298 298 298 298 298 299 302 306 311 316 318 320 322
332 332 332 331 329 327 327 326 324 322 318 315 313 312 311 310 308 305 304 303 303 303 302 306 315 322 324 324 322 321 320 313 306 300 299 299 298 298 298 298 298 297 297 298 298 297 296 297 297 297 297 297 297 297 297 297 297 297 297 297 297 298 298 298 298 298 299 298 299 299 299 299 299 299 299 298 298 298 298 299 302 307 312 316 319
332 331 330 328 326 326 325 323 321 317 314 312 311 310 308 306 304 303 303 303 302 302 302 302 305 312 318 320 320 319 315 311 306 302 299 298 298 297 298 297 297 297 298 298 298 297 297 297 297 297 297 297 297 297 296 297 297 297 297 297 297 297 298 298 298 298 298 299 299 299 299 299 299 299 299 299 299 299 298 298 298 300 304 308 314
331 330 328 327 325 324 323 319 316 313 312 311 309 306 304 303 302 302 302 302 302 301 302 302 302 303 306 310 313 312 310 310 311 306 302 300 298 297 297 297 297 297 298 298 297 296 296 297 297 296 297 297 296 297 296 296 296 296 297 297 297 297 297 298 298 298 298 298 299 299 299 299 299 299 299 300 301 300 298 299 299 298 299 301 306
330 329 327 326 324 322 318 315 312 311 310 308 305 303 302 302 301 301 301 301 301 301 301 301 301 301 301 302 302 302 304 309 312 310 308 306 302 299 297 297 296 297 297 297 296 296 296 296 297 296 296 296 296 296 296 296 296 296 296 296 297 297 297 297 297 298 298 298 299 299 299 299 299 299 299 301 303 302 299 299 299 299 299 298 300
329 327 326 324 321 318 314 312 310 309 307 305 302 301 301 301 301 301 301 301 301 301 301 301 301 300 300 300 300 300 300 302 304 306 310 310 306 303 302 300 298 296 296 297 296 296 297 296 296 297 296 296 296 296 296 296 296 296 296 296 296 296 296 296 297 297 297 298 298 298 299 299 299 299 299 302 303 302 301 300 299 299 299 299 299
328 326 324 322 317 314 311 310 309 307 305 302 301 301 301 301 301 301 300 301 301 301 300 300 300 300 300 300 300 300 299 299 299 301 306 307 306 306 305 305 304 299 295 296 297 297 298 297 297 297 297 296 296 296 295 296 296 296 296 296 296 296 296 297 297 297 297 298 298 298 298 299 299 299 300 301 301 302 302 301 299 300 300 299 299
326 324 322 318 314 311 310 309 307 304 302 301 301 301 301 301 300 300 301 300 300 300 300 300 300 299 299 299 300 300 300 299 299 300 303 306 306 305 304 305 306 302 297 296 297 299 299 299 299 298 296 296 297 296 295 296 296 296 296 296 296 296 297 297 297 298 298 298 298 298 298 298 298 298 299 299 299 301 302 301 300 300 300 300 299
324 322 318 314 311 310 309 307 304 302 301 300 300 300 300 300 300 300 300 300 300 300 300 299 299 299 299 299 299 299 299 298 298 299 301 304 306 306 304 303 305 303 299 297 299 299 300 300 300 298 297 297 297 296 295 295 295 296 296 296 296 297 297 298 298 298 298 298 298 298 298 298 298 298 298 299 299 300 300 300 300 300 300 300 300
322 319 315 312 310 308 306 304 302 301 300 300 300 300 300 300 300 300 300 300 300 299 299 299 299 299 299 299 299 299 299 298 298 298 298 300 303 305 304 304 304 304 301 301 301 300 299 300 300 299 298 297 296 295 295 295 295 296 296 296 297 297 298 299 299 300 299 299 299 299 299 299 299 299 299 299 299 299 299 299 299 300 300 300 300
321 316 313 311 309 307 304 302 300 300 300 300 300 300 300 300 300 300 300 300 299 299 299 299 299 299 299 298 298 298 298 298 297 297 297 297 299 302 304 304 305 305 303 303 302 301 299 299 299 299 298 297 296 295 295 295 295 296 296 297 297 299 300 300 300 300 300 300 300 300 300 300 300 300 300 300 300 299 299 299 299 299 300 300 300
318 313 311 309 307 304 302 300 300 300 300 300 300 299 299 300 300 300 299 299 299 299 299 299 299 299 298 298 298 298 297 297 297 297 297 297 297 298 301 304 306 305 303 303 302 301 300 299 299 299 297 296 295 295 295 295 296 296 297 298 299 300 300 300 300 300 299 299 299 300 300 300 300 300 300 300 300 300 300 300 299 299 299 300 300
315 312 309 308 305 302 300 300 299 299 299 299 299 299 299 299 299 299 299 299 299 299 299 299 298 298 298 298 297 297 297 297 297 296 297 297 297 297 298 301 305 304 303 303 302 301 300 298 298 298 297 296 295 295 295 296 296 296 297 298 299 300 301 300 299 299 299 298 298 298 298 298 298 298 298 299 299 299 299 299 299 299 299 300 300
313 310 308 306 303 301 299 299 299 299 299 299 299 299 299 299 299 299 299 299 298 298 298 298 298 298 297 297 297 297 296 296 296 296 297 296 296 296 296 297 301 303 302 302 302 301 300 298 298 298 296 295 295 295 295 296 296 297 298 299 300 300 300 300 300 299 299 298 298 297 297 297 297 297 297 297 297 297 297 297 298 298 298 299 300
311 308 306 304 301 299 299 298 299 299 299 299 299 299 299 299 299 299 299 298 298 298 298 298 298 297 297 297 296 296 296 296 296 296 296 296 295 296 296 295 297 300 301 302 302 301 299 297 298 297 296 295 295 295 295 296 297 297 298 298 300 300 300 300 300 300 299 298 298 298 297 297 297 296 296 296 296 296 296 297 297 297 297 298 299
309 307 305 303 300 299 298 298 298 299 299 299 299 299 299 299 299 299 298 298 298 298 298 298 297 297 296 296 296 296 296 296 296 295 295 295 295 295 295 295 295 296 298 300 302 300 298 297 297 296 295 295 295 296 297 297 297 297 297 298 300 300 300 300 301 300 300 299 298 298 297 297 297 297 296 296 296 296 296 296 297 297 297 297 297
308 306 303 301 299 298 298 298 298 298 299 299 299 298 298 299 299 299 298 298 298 298 297 297 297 296 296 296 296 296 296 295 295 295 294 295 295 295 295 295 295 294 295 298 300 300 298 298 296 295 296 295 295 297 297 297 297 297 297 298 299 300 300 301 301 301 300 300 299 298 298 297 297 297 297 297 297 296 296 296 296 296 296 297 296
306 304 302 299 298 298 298 298 298 298 298 298 298 298 298 298 298 298 298 297 297 297 297 297 296 296 296 296 296 295 295 295 295 294 295 295 295 295 295 295 295 294 294 296 299 299 298 297 296 296 296 296 296 298 298 297 297 297 297 298 299 300 300 301 301 301 300 300 299 298 298 297 298 297 297 297 297 296 296 296 296 296 296 296 295
305 303 300 298 298 298 297 297 298 298 298 298 298 298 298 298 298 298 297 297 297 297 297 297 296 296 295 295 296 295 295 295 295 295 295 295 295 295 295 295 296 295 294 295 298 298 298 297 297 296 297 297 297 298 298 297 297 297 297 298 299 300 300 300 301 301 300 300 299 298 298 298 297 297 297 297 296 297 296 296 296 296 296 296 296
303 301 299 298 298 297 297 297 297 297 298 298 298 298 297 298 298 298 297 297 297 296 296 296 296 296 295 295 295 295 295 294 294 295 294 295 295 295 295 295 295 295 294 295 297 298 298 297 298 297 297 297 298 298 298 298 297 297 298 298 299 300 300 300 301 301 300 300 299 299 298 298 297 297 297 296 296 296 296 296 296 296 297 297 296
302 300 298 297 298 297 297 297 297 297 297 298 298 297 297 297 297 297 297 297 296 296 296 296 295 295 295 295 295 294 294 295 295 294 294 294 295 295 295 295 295 294 294 294 296 298 298 298 299 299 298 298 298 299 299 299 298 297 298 299 299 299 300 300 300 300 300 300 299 299 299 298 297 297 297 296 296 296 296 296 296 296 297 297 296
300 299 298 297 297 297 297 297 297 297 297 298 298 297 296 296 297 297 297 296 296 296 295 295 295 295 294 294 294 294 294 295 295 294 294 294 295 295 294 295 296 295 294 295 296 297 298 299 299 299 299 299 299 299 299 298 298 298 299 298 299 299 299 299 300 300 300 300 299 299 299 298 297 297 297 296 296 296 296 296 297 297 297 297 297
300 299 297 297 297 297 297 297 297 297 297 297 297 297 296 296 296 296 296 296 295 295 295 295 295 294 294 294 294 294 294 294 294 294 294 294 295 294 294 295 296 295 294 295 296 296 298 300 300 300 300 299 299 299 299 298 298 299 299 298 298 299 299 300 300 300 300 300 300 299 299 298 297 297 297 296 296 296 296 296 296 297 297 297 297
300 298 297 297 297 296 298 298 297 297 297 297 297 296 296 296 296 296 296 296 295 295 295 295 295 294 294 294 294 294 294 294 294 294 295 295 295 294 294 294 294 294 295 296 296 297 298 299 300 300 300 300 300 299 298 298 298 299 299 298 298 299 300 300 300 300 300 300 300 299 298 298 297 297 297 296 296 296 297 296 296 297 297 297 297
299 298 297 297 297 298 299 298 297 297 297 297 297 296 296 296 296 296 296 296 295 295 295 295 294 294 294 294 294 294 294 294 295 295 295 295 295 294 294 294 293 294 294 295 297 298 298 299 299 300 300 300 299 299 299 298 298 298 298 298 299 299 299 299 299 299 299 299 299 299 298 298 298 298 297 297 297 297 297 297 297 297 297 298 297
299 297 297 296 297 300 300 298 297 297 296 296 297 296 296 296 296 296 296 295 295 295 295 295 295 294 294 294 294 294 294 294 295 295 295 295 295 294 294 294 293 294 294 295 296 297 298 298 299 299 299 299 299 298 299 298 298 297 297 298 299 299 299 299 299 299 299 299 299 299 298 298 298 298 297 297 297 297 297 297 297 298 298 298 298
298 297 296 296 297 299 299 297 296 296 296 296 296 296 296 296 295 296 295 295 295 295 295 295 295 294 294 294 294 294 295 295 295 295 295 295 295 294 294 294 294 294 293 294 295 296 297 298 299 299 299 299 298 298 298 298 297 296 296 297 299 299 299 299 299 299 299 299 299 299 298 298 298 298 297 297 297 297 297 297 297 298 298 297 297
298 296 296 296 296 298 298 296 297 296 296 296 296 296 296 296 295 295 295 295 295 295 295 295 294 295 294 294 294 294 295 295 295 295 295 295 295 295 295 294 294 294 294 293 293 294 295 297 298 298 299 298 298 298 298 297 296 295 295 297 298 299 299 299 299 299 299 299 298 298 298 298 298 297 297 297 297 297 297 297 297 297 297 296 295
298 296 296 296 296 297 297 297 297 296 296 296 296 296 296 296 296 295 295 296 295 296 296 296 296 295 294 294 294 295 295 295 295 295 295 295 295 295 295 294 294 294 294 293 293 292 293 295 297 298 298 298 297 297 297 296 295 294 295 297 298 299 299 299 299 299 299 298 298 298 298 298 297 297 297 297 297 297 297 297 296 296 295 295 295
298 297 296 296 296 296 296 297 296 296 296 296 296 296 295 296 296 296 295 295 296 296 297 297 298 297 295 294 294 294 295 295 295 295 295 295 295 295 295 295 294 294 294 294 293 292 292 293 295 297 297 296 297 297 296 295 294 294 295 297 298 298 298 299 299 299 299 298 298 298 298 298 297 297 297 297 297 297 296 296 296 296 295 295 295
298 297 296 296 295 296 296 296 296 296 296 296 296 295 295 295 295 297 297 295 295 297 297 297 298 297 296 295 295 294 295 295 295 295 295 295 295 295 295 295 295 295 294 294 293 293 293 292 292 294 294 294 295 296 294 293 294 294 295 296 297 298 298 298 298 298 298 298 298 297 297 298 297 296 297 297 296 296 296 296 296 295 295 295 295
298 296 295 295 295 295 296 296 296 296 296 296 296 295 295 296 295 297 298 296 295 297 296 296 296 295 295 296 296 295 295 295 295 295 295 295 295 295 295 295 295 295 294 294 294 294 294 293 292 292 292 292 293 294 293 293 293 294 294 296 297 298 298 298 298 298 298 298 298 297 297 297 297 296 296 296 296 296 296 296 296 295 295 295 295
298 297 295 295 295 295 296 296 295 296 295 295 295 295 295 295 295 296 297 296 296 297 296 295 295 294 294 295 295 295 295 295 296 296 295 296 295 295 295 295 296 296 295 294 294 294 294 294 293 292 292 291 292 292 292 293 293 293 294 296 298 298 298 298 298 298 298 298 298 297 297 297 296 296 296 296 295 295 296 295 295 295 294 295 296
299 298 296 295 295 295 296 295 295 296 296 295 295 295 295 295 295 296 296 296 297 297 296 294 295 294 295 295 295 295 296 296 296 296 296 296 296 295 295 295 296 297 296 294 295 295 294 294 294 293 293 293 293 293 293 293 293 293 295 297 297 297 297 298 298 299 298 298 298 297 297 297 296 296 296 295 295 295 295 295 295 295 294 294 295
299 297 296 295 295 295 295 295 295 295 295 295 295 295 295 295 294 296 297 297 298 297 295 294 295 295 295 295 295 295 295 295 296 296 296 296 295 295 295 295 296 297 296 295 295 295 295 295 295 295 295 295 295 295 293 293 292 293 296 297 297 297 298 298 298 299 298 298 298 297 297 297 296 295 295 295 294 294 294 295 294 294 294 294 295
298 296 295 295 295 295 295 295 295 295 295 295 295 295 295 294 295 296 298 299 299 297 296 295 295 295 295 295 296 295 295 296 296 296 296 296 295 295 295 296 296 296 295 295 296 296 296 296 296 296 296 295 295 295 294 293 293 293 295 297 297 297 298 298 298 298 298 298 298 297 297 297 296 295 294 294 294 294 293 293 294 294 294 294 295
298 296 294 294 294 294 294 295 294 295 295 295 295 295 295 294 294 296 299 301 300 298 297 296 295 295 296 295 296 296 296 296 296 296 296 296 296 296 295 296 296 295 295 295 296 296 296 296 296 296 296 295 295 295 294 294 293 293 294 296 297 297 298 298 298 298 298 298 298 297 297 297 296 295 294 293 294 294 293 293 293 293 293 294 295
Wind_Speed
2 1 1 0 1 2 3 3 4 4 4 3 3 3 3 2 2 1 1 1 1 1 1 2 3 3 3 3 5 5 6 6 5 5 7 9 12 12 11 12 13 12 13 12 13 13 12 12 12 11 10 10 10 10 11 12 12 12 13 13 14 15 15 14 15 16 18 18 18 18 17 16 16 17 17 17 17 16 15 15 15 17 17 17 17
3 2 1 1 1 3 3 3 3 4 4 3 2 2 3 3 3 2 2 2 1 1 2 2 3 3 3 4 6 7 7 7 5 4 5 6 10 12 10 10 12 12 12 12 12 12 11 11 12 12 11 11 11 11 11 12 12 13 13 13 13 15 14 13 13 15 17 17 17 16 16 15 16 17 18 18 18 17 16 16 16 17 18 18 18
3 3 2 1 2 3 3 3 3 3 4 3 3 2 2 2 2 2 2 2 2 2 2 2 3 3 4 5 7 7 7 6 6 5 4 4 5 10 10 8 9 10 11 11 11 11 11 12 12 13 13 13 14 13 12 13 13 13 15 15 13 14 14 13 12 13 15 16 16 16 16 16 15 16 18 20 21 19 17 16 15 16 18 19 19
3 2 2 2 3 4 4 3 3 4 4 4 3 3 2 2 1 1 1 1 1 2 2 2 3 2 4 5 5 5 5 5 6 6 5 4 4 6 8 8 9 10 10 11 11 11 12 12 13 14 14 15 16 15 16 16 16 17 18 19 16 14 14 14 14 16 17 17 17 17 17 18 17 16 17 19 21 21 19 17 15 15 17 20 21
3 3 3 2 3 3 4 4 4 4 4 4 3 2 2 2 2 2 2 2 3 3 3 3 2 1 3 3 3 4 4 5 5 5 5 5 5 6 7 8 8 9 11 11 12 12 12 12 13 13 14 15 16 16 18 18 18 18 20 21 20 17 16 17 17 19 20 20 19 19 19 19 19 18 17 18 19 20 20 19 16 16 17 19 22
3 3 3 3 3 3 3 4 4 4 4 3 3 2 2 2 2 2 3 3 3 3 3 2 1 2 4 3 4 4 4 4 5 5 5 5 6 7 8 8 8 9 11 13 12 12 12 12 13 13 14 15 16 17 18 19 20 20 20 22 23 21 19 19 20 21 21 21 21 22 21 21 22 21 20 19 18 19 20 20 19 18 17 18 21
4 3 3 2 2 2 3 4 4 4 3 3 2 2 3 4 3 2 2 2 3 2 2 0 1 3 5 4 3 3 4 4 4 5 6 6 7 7 8 8 9 9 11 13 13 13 13 13 13 13 14 15 16 17 18 19 21 21 21 22 24 23 21 21 22 23 22 21 22 24 24 22 23 25 24 21 19 19 19 20 21 21 21 18 18
4 4 3 3 2 2 3 4 4 3 2 3 2 2 4 5 4 3 3 2 3 2 0 2 5 5 3 2 2 2 3 4 4 5 5 6 7 8 8 9 9 10 10 11 12 13 13 13 13 13 13 14 14 16 16 18 19 20 21 21 23 23 23 22 23 24 24 22 22 25 26 23 22 25 25 23 19 18 18 20 20 21 22 20 17
4 4 4 3 2 2 3 4 3 2 2 2 2 3 4 5 5 5 4 3 3 3 3 4 4 3 2 1 1 1 2 3 3 4 5 6 7 8 8 8 9 9 10 10 11 12 13 13 13 12 12 13 13 13 14 15 16 18 19 19 21 22 23 23 23 24 25 24 22 24 26 23 22 23 24 24 21 18 18 20 19 19 20 21 20
5 5 4 3 2 2 3 3 2 1 2 2 2 3 5 5 5 4 3 1 0 1 2 3 2 2 1 1 0 0 1 2 3 4 5 6 7 8 8 9 10 10 11 11 12 13 13 13 13 13 13 14 14 14 14 15 16 17 17 18 19 21 22 22 23 24 25 25 23 24 25 24 23 23 23 25 24 21 20 22 22 21 22 22 22
6 5 4 2 2 2 2 1 1 1 1 1 2 3 5 4 3 2 2 1 1 2 2 2 3 3 2 2 1 1 1 2 4 5 6 7 8 9 10 10 10 11 12 13 14 14 14 14 14 15 15 15 15 15 16 16 17 18 18 18 19 20 21 22 22 23 25 25 24 25 25 24 24 24 23 24 25 24 22 22 24 25 24 24 24
6 4 3 2 2 1 1 1 2 2 1 2 2 4 4 2 1 1 1 1 1 1 2 3 3 3 3 2 2 1 2 4 5 6 7 8 9 10 10 10 11 12 13 14 14 15 15 16 17 17 17 17 17 17 17 17 17 18 19 19 19 20 21 21 22 22 24 25 25 25 25 25 25 25 25 25 26 27 25 23 25 26 26 25 26
5 4 3 1 1 1 1 2 2 2 2 2 3 3 1 1 2 2 2 2 1 2 3 3 3 3 3 2 2 1 2 5 6 6 8 10 10 10 10 11 13 13 14 14 15 16 17 18 18 18 18 18 19 18 18 18 17 17 18 18 19 20 21 21 22 22 22 24 24 25 26 25 25 25 25 26 27 28 27 25 25 26 27 26 27
4 2 1 1 2 2 3 3 2 1 1 1 0 1 2 3 2 2 2 2 1 3 4 4 4 3 5 4 2 1 3 5 6 8 10 10 11 11 12 12 12 13 14 15 16 17 18 19 19 20 20 21 21 21 20 20 19 19 19 18 19 19 20 21 21 22 22 22 23 24 25 25 25 25 24 26 27 29 29 28 27 26 27 27 28
2 2 2 3 4 4 3 2 1 0 2 2 2 3 3 3 3 3 3 2 2 3 4 6 6 5 5 4 4 4 2 4 5 8 10 11 12 12 13 13 13 15 16 16 17 18 19 20 21 21 22 22 22 22 21 21 21 21 21 21 20 20 20 21 21 21 22 23 23 23 24 24 25 25 24 24 26 29 30 29 28 27 27 27 27
2 2 3 5 6 4 2 1 1 3 4 4 4 4 4 4 4 4 5 4 3 3 4 6 8 8 5 3 4 6 4 3 3 8 10 11 13 13 14 14 15 16 16 15 16 17 19 19 20 21 21 22 22 22 22 22 22 23 23 22 22 22 22 22 22 22 22 23 24 24 25 25 25 25 25 24 25 27 29 29 28 27 28 28 27
2 3 5 6 5 3 2 2 4 5 6 5 5 5 4 5 6 6 7 7 6 6 7 6 7 7 6 4 3 3 4 5 3 6 9 11 13 13 14 15 16 15 13 13 14 16 18 19 21 22 22 23 24 24 24 24 25 25 24 25 24 24 24 24 24 23 23 23 24 25 26 27 27 26 25 25 25 25 27 28 28 27 27 29 28
2 5 6 5 3 2 3 5 6 7 6 6 6 5 5 6 7 9 10 10 9 9 10 10 8 7 7 5 3 3 6 5 2 3 5 9 13 13 14 14 14 13 12 13 15 16 18 20 21 23 24 25 25 26 26 26 27 27 26 26 27 26 26 26 26 25 25 24 24 25 25 26 28 27 27 26 25 25 25 27 28 27 26 28 29
4 6 5 3 2 4 6 7 7 7 7 6 6 6 7 8 10 11 12 12 11 11 12 12 11 10 9 7 6 7 8 6 4 3 2 4 10 13 14 14 15 13 12 14 16 17 19 20 21 23 25 26 27 27 27 27 28 28 28 28 28 28 28 27 27 27 27 26 25 24 25 26 27 28 27 25 24 24 25 26 27 27 26 26 29
5 6 3 2 4 6 7 8 8 7 7 7 7 8 9 11 12 13 13 12 12 12 13 12 12 11 11 10 10 10 10 9 7 5 3 2 4 8 10 14 16 16 14 14 15 18 20 22 22 23 25 27 28 29 29 29 29 29 29 30 30 30 30 29 29 28 28 28 27 25 25 25 26 27 27 25 25 25 25 26 27 27 27 27 28
5 3 2 4 6 8 8 9 8 7 8 8 9 10 11 12 13 13 13 13 13 12 13 13 12 13 12 12 12 12 12 12 12 11 8 4 4 4 5 9 11 15 18 16 18 21 21 23 23 22 24 27 28 29 30 30 30 31 32 32 32 32 32 30 29 28 28 27 27 27 26 25 26 26 27 27 27 25 24 25 26 27 28 28 28
4 1 4 6 7 9 9 9 9 8 9 9 10 11 12 13 13 13 13 12 12 12 13 13 13 13 14 14 13 13 13 14 15 14 11 7 5 5 5 5 4 9 16 17 18 18 17 19 20 21 25 26 27 29 30 31 33 34 35 34 34 33 32 31 29 28 27 27 27 27 26 26 26 26 27 28 28 26 25 25 26 26 28 30 29
2 3 6 7 8 9 9 9 9 9 10 10 11 12 13 13 13 13 13 12 12 13 13 13 14 14 14 14 14 14 14 15 15 15 13 10 6 6 7 7 4 6 13 17 18 16 15 15 16 20 25 25 26 30 31 33 34 35 36 37 36 35 33 31 30 29 27 26 26 26 26 26 26 27 27 28 28 28 28 28 26 26 28 31 31
2 6 8 9 9 9 9 9 9 10 11 12 13 13 13 13 13 13 12 13 13 12 13 13 13 14 14 14 14 14 14 15 15 15 15 14 10 8 8 8 6 5 9 14 14 13 15 16 16 19 23 25 27 30 32 34 34 35 38 39 38 37 35 33 32 31 29 28 26 25 26 26 26 27 28 28 29 30 31 31 29 28 29 31 32
5 8 9 10 10 10 10 10 10 11 12 13 14 14 14 13 13 13 13 13 12 12 13 13 13 13 14 14 14 14 15 15 15 15 15 15 14 12 10 8 7 7 8 8 8 10 14 16 16 18 21 26 29 31 32 34 34 36 39 39 39 38 36 35 34 35 33 31 29 27 26 26 26 27 28 28 29 30 31 32 32 30 29 30 32
8 10 10 11 11 11 11 11 12 13 13 14 14 14 14 13 12 13 13 12 12 12 13 12 13 13 14 14 14 14 15 15 15 15 15 15 16 16 14 9 7 7 8 8 8 11 14 17 16 17 22 28 30 31 32 33 35 37 39 39 39 38 36 36 37 37 35 32 31 29 27 26 26 26 27 27 27 27 28 30 31 30 29 29 30
10 11 11 12 11 11 12 12 13 14 14 15 15 14 13 13 13 12 13 12 12 12 12 12 13 14 14 14 14 14 15 15 15 15 15 15 16 17 17 13 9 9 10 9 9 11 14 19 18 18 24 29 31 32 32 33 35 38 39 40 40 38 36 36 36 36 34 34 34 33 32 31 29 28 27 26 26 26 26 27 28 28 27 27 27
12 12 12 12 12 12 12 13 14 15 15 15 15 14 13 13 13 12 13 12 12 12 12 13 14 14 14 14 14 15 15 15 15 15 15 16 17 17 17 17 13 12 12 11 12 12 16 21 21 21 26 30 32 32 32 34 36 39 40 42 41 37 34 34 34 35 37 38 38 37 37 36 35 32 29 26 26 27 26 26 26 25 24 24 25
12 12 12 12 12 12 13 14 15 16 16 15 14 14 13 13 13 13 13 12 11 12 12 13 14 14 14 14 14 15 15 15 15 15 16 17 17 17 17 19 17 13 13 13 13 14 19 22 22 24 28 31 32 33 35 36 37 39 42 43 39 34 34 33 35 38 39 37 37 38 38 38 37 34 31 28 27 26 25 24 25 24 23 23 23
12 12 12 12 13 13 14 15 16 16 16 15 15 14 13 13 13 13 12 11 11 12 12 13 14 14 13 13 14 14 14 14 15 16 17 16 17 17 17 18 18 16 14 13 11 13 19 23 23 26 30 31 32 34 34 34 35 39 44 42 35 34 34 32 33 38 40 38 37 38 39 38 36 33 30 28 28 27 26 25 25 24 23 23 23
13 13 13 13 14 14 14 15 16 16 15 15 15 14 13 13 12 12 12 11 11 12 12 13 14 13 13 13 13 13 14 15 15 16 16 16 16 17 17 18 19 19 18 13 12 14 18 21 26 28 29 31 33 31 31 33 36 39 43 41 36 36 33 29 31 36 39 41 40 40 40 37 33 30 27 27 26 26 26 27 26 26 24 23 23
14 14 14 14 14 15 15 15 16 16 16 15 15 14 13 13 12 12 12 11 11 12 12 12 13 13 13 13 12 13 14 15 15 16 15 16 17 17 17 17 17 19 19 14 13 16 18 21 26 28 28 31 32 29 30 35 38 40 42 41 38 37 32 27 29 31 34 39 39 39 39 35 32 29 28 27 26 25 25 25 26 28 27 26 26
15 15 15 14 14 15 15 15 16 16 15 15 14 14 13 13 12 12 12 11 11 12 12 12 12 13 13 12 12 13 14 14 15 15 15 17 15 15 16 15 14 16 18 15 12 17 20 21 24 27 28 29 30 29 30 36 41 42 43 40 36 34 31 29 31 32 33 37 39 39 39 37 35 32 29 28 27 27 26 25 24 26 28 29 29
16 15 15 15 15 15 15 16 16 16 15 14 14 14 13 12 12 12 11 11 10 11 12 12 12 12 12 12 12 13 13 13 14 14 15 16 14 14 16 15 14 14 17 17 14 15 20 22 22 25 28 29 29 29 30 33 39 42 42 39 34 31 29 29 31 32 33 37 40 40 40 39 36 33 31 30 30 29 28 28 26 25 25 26 28
17 16 16 16 16 16 16 17 17 16 15 14 14 14 13 12 11 11 11 10 10 11 12 12 12 12 12 12 12 13 13 13 14 14 14 15 14 15 15 14 15 15 17 19 17 15 19 21 21 22 26 28 28 28 28 30 35 39 39 38 35 32 30 30 31 31 33 36 39 39 38 38 35 33 32 32 31 30 29 28 26 24 23 23 24
17 17 17 16 16 17 17 17 17 16 15 14 14 14 13 12 11 10 10 10 10 11 11 12 13 12 12 13 12 12 12 12 13 14 14 14 15 15 15 14 13 15 18 19 18 17 18 19 21 21 23 26 27 27 28 30 34 34 34 38 38 33 32 33 31 31 33 34 35 35 36 37 34 32 32 31 30 29 27 26 24 24 24 23 23
18 18 18 17 18 18 18 17 17 16 15 14 14 14 13 12 11 9 9 10 11 11 11 12 12 13 13 13 12 12 12 12 12 13 13 14 15 15 16 15 13 16 19 18 18 19 18 18 20 20 21 24 25 26 28 32 34 31 31 38 39 33 32 33 31 32 33 32 32 33 35 34 32 32 32 32 31 27 25 25 25 25 25 24 23
18 18 19 19 19 19 18 17 16 16 15 14 14 14 13 12 11 10 10 10 11 12 12 12 12 13 13 12 12 11 11 11 11 12 12 13 15 15 16 17 17 19 20 18 18 19 18 18 18 20 21 22 24 26 28 31 34 33 34 38 37 32 31 32 32 33 33 32 32 33 33 32 33 34 34 32 30 27 26 27 26 25 24 23 23
19 18 19 20 20 19 18 17 17 16 16 15 15 14 13 12 11 10 10 11 12 12 12 12 12 13 13 12 11 10 10 10 10 11 11 13 15 15 17 18 19 20 21 19 17 16 17 17 17 19 21 21 23 26 28 29 31 34 36 37 36 32 32 33 33 35 34 33 32 31 32 33 33 33 32 31 29 29 30 29 25 22 21 22 22
19 19 20 21 21 20 19 19 17 17 16 16 15 14 13 12 11 11 11 12 12 12 12 12 13 13 12 11 10 9 9 9 10 10 11 12 14 15 16 18 19 21 21 19 17 16 16 17 17 19 20 21 23 27 28 29 32 36 38 36 33 32 33 33 33 34 35 34 33 31 30 32 32 31 31 30 28 28 29 27 22 20 19 22 24
20 20 21 22 22 21 21 20 18 17 17 16 16 15 14 13 12 11 12 12 12 12 12 12 12 13 12 10 9 8 8 9 9 10 11 12 14 15 16 18 19 20 21 21 19 18 18 16 17 19 20 21 24 27 28 30 33 38 40 37 32 31 31 31 32 32 32 33 34 33 32 31 31 30 30 30 28 26 26 24 22 21 23 26 27
21 22 22 22 22 22 21 20 19 18 18 17 17 16 15 14 13 12 12 13 12 12 12 12 12 12 11 9 8 7 8 8 9 10 11 12 13 14 16 17 18 19 21 22 21 21 20 17 16 18 20 21 24 26 27 31 34 37 40 37 34 32 32 33 32 30 32 34 33 33 33 31 30 31 29 28 27 26 26 25 24 25 28 29 28
22 23 24 23 23 22 21 20 20 19 18 18 17 16 16 15 14 13 13 13 12 12 11 11 10 10 9 8 7 7 7 7 8 9 10 11 13 14 15 16 18 19 20 22 22 23 23 20 17 17 19 21 24 24 26 31 35 38 38 35 33 32 33 34 35 33 36 36 31 33 38 33 28 31 30 27 27 27 26 25 26 29 29 28 27
23 24 24 24 23 22 22 21 20 19 19 18 17 16 16 15 15 15 13 13 13 12 11 10 9 8 8 7 6 6 6 5 7 8 8 10 11 12 14 16 18 19 19 21 22 23 24 23 20 18 19 21 23 24 27 31 35 37 37 33 30 30 32 33 34 36 38 35 30 36 44 39 31 31 31 29 28 27 26 26 29 30 29 26 25
23 24 25 24 24 23 22 21 20 20 19 18 17 17 16 15 16 15 13 12 13 11 10 11 9 8 8 6 5 5 4 4 5 6 7 9 10 12 14 16 17 18 20 21 22 22 23 24 22 21 21 22 22 23 27 31 34 36 36 33 30 29 31 32 33 36 38 35 32 38 46 43 36 33 32 30 29 28 27 27 29 30 29 29 28
23 24 25 25 24 23 23 22 21 20 19 18 18 17 17 16 16 15 13 13 13 11 10 11 11 10 9 7 5 4 3 3 4 4 6 7 9 11 13 13 14 17 19 21 21 22 22 22 22 22 23 23 23 23 27 30 33 35 35 32 30 29 31 31 30 32 34 34 34 38 43 43 37 34 34 32 30 30 28 27 29 30 31 31 29
23 24 24 24 24 23 23 23 22 21 20 19 18 18 17 17 16 16 15 14 13 11 10 11 11 9 9 8 6 4 2 2 3 4 5 6 8 10 11 12 13 14 16 17 18 19 21 21 22 22 23 23 22 23 27 30 32 35 33 29 27 27 28 29 28 29 32 32 33 37 41 40 35 33 36 35 31 31 29 27 28 30 31 30 28
22 24 24 24 24 24 24 23 22 22 20 19 19 18 17 17 17 16 15 14 13 12 11 11 10 10 9 8 6 4 2 1 2 3 4 5 8 9 10 11 12 12 14 16 16 17 19 20 20 21 21 22 23 26 30 31 32 35 31 26 26 27 27 29 29 31 33 32 34 38 40 37 33 32 36 36 32 30 29 27 28 30 31 31 28
23 24 24 25 24 23 24 24 23 22 21 20 19 19 18 18 17 16 14 13 13 12 12 11 10 9 9 8 7 5 2 1 1 3 4 5 7 8 9 10 11 11 12 14 15 16 18 18 19 19 21 23 26 29 32 31 31 33 29 25 28 29 28 30 31 32 33 30 34 41 38 34 34 32 34 35 31 30 31 32 31 31 30 29 28
22 23 24 24 23 24 24 24 24 23 22 21 20 19 19 19 18 17 14 13 13 13 12 11 10 9 9 8 7 6 4 2 0 2 3 4 6 7 8 9 11 11 11 12 14 15 16 17 18 20 22 26 28 29 30 30 30 31 27 25 28 28 27 28 29 30 30 28 34 42 37 33 36 35 33 35 35 35 39 39 35 31 29 29 30
21 22 23 23 23 24 25 24 25 24 22 21 20 20 20 19 19 18 15 13 14 14 13 11 11 10 8 7 7 5 4 3 1 1 2 4 5 6 7 9 10 10 11 13 14 15 16 18 21 23 24 26 28 28 29 29 28 29 27 25 26 26 26 26 26 28 29 29 36 41 35 31 36 35 33 36 40 45 49 43 35 31 30 32 33
Wind_Direction
194 238 286 225 142 118 114 107 100 100 101 105 112 118 118 116 115 108 106 107 87 29 28 28 20 14 13 350 333 333 331 330 340 338 327 322 320 328 332 327 330 331 331 332 330 330 326 326 329 333 342 346 355 354 346 342 334 328 323 318 316 316 319 319 318 317 314 313 316 320 317 305 295 292 294 297 297 297 301 295 271 252 250 250 252
188 207 225 183 130 103 100 94 91 99 107 105 102 104 108 113 112 104 95 94 79 44 44 45 24 11 15 347 332 331 327 323 330 345 358 354 330 332 341 332 332 334 334 335 335 335 333 330 330 331 331 330 340 345 342 341 337 332 323 316 313 310 311 314 320 322 319 316 314 316 319 310 297 291 289 291 296 297 296 298 288 264 251 248 249
183 184 177 139 105 94 87 88 89 95 103 100 94 94 103 109 109 113 105 95 86 60 58 66 43 15 351 328 326 326 326 331 336 338 356 29 352 337 345 342 335 338 339 340 339 340 338 336 335 334 331 326 326 327 325 322 320 317 313 313 313 308 305 305 311 315 315 316 313 312 312 308 301 292 288 288 290 292 292 292 293 279 259 249 248
161 155 149 123 106 103 94 91 83 87 95 93 94 87 77 75 81 86 77 93 54 32 30 43 56 22 338 333 339 343 345 347 349 349 344 1 19 353 349 350 345 343 344 343 342 342 339 336 333 330 328 325 321 318 313 311 311 309 308 311 313 311 306 302 300 301 303 309 312 309 304 302 299 292 288 289 287 286 287 286 288 287 271 254 247
133 134 132 120 111 106 96 90 82 86 90 87 85 79 67 44 43 22 1 5 357 11 31 39 48 1 349 1 3 359 356 354 355 360 359 358 4 357 352 355 354 347 342 340 338 336 333 330 326 323 320 317 315 313 311 312 312 311 311 311 312 314 311 305 299 300 302 306 308 305 302 302 299 293 286 285 286 282 281 282 283 284 278 261 249
134 130 125 124 117 110 96 92 87 84 82 82 71 60 58 24 25 4 359 7 348 5 47 64 87 342 339 345 346 352 357 1 0 2 10 7 359 354 349 347 344 340 335 333 332 330 328 326 322 318 315 312 310 309 309 309 309 309 310 309 310 313 315 310 304 304 306 308 307 302 302 304 302 300 294 287 284 280 276 277 281 280 277 268 253
142 129 126 132 130 131 105 90 84 76 66 66 49 31 24 7 3 347 350 353 330 6 80 103 270 305 321 330 342 357 2 2 9 9 4 358 354 350 345 340 336 333 330 329 331 332 331 330 327 322 317 314 311 309 308 307 306 306 307 307 307 309 312 311 307 307 307 306 305 301 301 303 303 303 302 298 288 283 277 274 278 279 276 272 260
148 137 138 148 159 144 101 81 74 73 50 39 32 15 2 349 335 325 327 314 310 322 90 286 290 296 305 327 351 7 12 8 6 3 357 353 348 344 342 341 337 337 338 337 340 342 344 344 341 336 330 325 321 317 314 311 310 310 310 310 309 309 309 309 307 306 305 305 304 300 302 305 303 300 302 303 296 286 276 268 270 271 273 275 270
152 144 149 163 168 134 97 79 69 61 26 22 15 351 339 330 320 314 310 297 298 297 286 285 287 290 289 314 11 19 12 8 1 353 352 349 346 350 352 352 352 354 356 356 356 356 357 356 353 351 347 342 338 334 331 327 323 321 320 319 315 313 312 311 309 307 306 306 304 300 301 304 302 299 300 302 298 286 271 265 264 261 262 267 268
161 156 163 169 151 121 98 80 62 31 3 354 337 328 322 319 318 316 314 305 253 248 268 274 267 248 236 220 158 57 25 6 1 360 358 360 4 11 14 11 10 8 8 8 9 8 7 6 6 4 1 358 355 351 347 343 337 333 331 328 324 320 318 317 314 311 309 308 306 302 301 302 299 297 297 297 295 289 276 269 267 262 259 260 262
169 168 167 147 123 118 103 65 5 348 352 335 314 320 319 321 331 347 11 56 134 183 238 247 232 218 203 184 171 135 77 32 16 15 17 23 28 28 25 22 17 15 14 14 12 13 14 15 16 14 11 6 3 360 355 350 345 340 338 335 330 327 323 321 318 315 313 311 309 305 302 301 298 295 293 291 291 290 286 278 274 271 265 260 258
164 161 158 136 121 111 82 3 322 319 315 301 299 315 325 335 48 70 67 72 114 198 243 233 212 204 199 186 155 124 47 24 23 33 40 40 37 33 30 26 23 20 17 15 15 15 16 18 19 18 15 12 8 5 360 354 350 344 340 337 334 332 328 326 322 319 316 313 312 309 306 303 298 294 291 289 288 288 288 285 282 279 275 269 262
159 152 168 168 74 18 359 341 331 309 290 284 289 306 327 112 109 99 104 100 112 209 223 200 181 178 168 165 153 113 20 28 38 49 51 45 39 36 34 32 28 24 19 17 17 17 19 19 19 18 15 13 10 7 4 360 355 350 343 339 336 334 331 329 326 323 319 316 315 312 309 307 302 297 293 289 287 286 286 285 283 282 281 279 273
166 166 227 337 4 349 335 333 331 296 255 239 234 141 136 125 116 114 113 114 158 199 196 164 164 175 150 138 133 62 21 34 51 55 49 42 39 37 35 34 31 27 24 23 21 19 20 19 18 17 14 13 10 7 5 2 358 353 349 345 340 337 333 330 327 325 323 320 319 316 313 311 307 303 298 292 289 286 284 283 283 283 283 282 278
181 234 299 344 342 328 318 314 307 123 117 128 127 128 127 117 120 122 117 122 156 185 180 163 169 186 180 169 164 157 88 45 44 46 44 39 37 37 35 31 28 29 28 26 24 21 20 19 16 14 12 10 9 6 4 1 358 355 353 351 346 342 338 334 330 327 326 324 322 321 318 315 312 308 305 299 293 289 285 283 282 282 283 282 279
241 266 311 329 324 310 288 257 134 122 123 128 128 126 124 124 130 126 125 129 132 135 139 157 167 175 193 217 198 180 156 126 58 38 39 37 35 34 32 31 28 30 30 27 24 21 20 18 14 12 10 9 8 6 5 2 359 358 356 353 349 346 343 339 335 331 328 326 325 323 321 319 316 314 312 306 299 293 290 287 284 281 281 281 280
255 306 323 319 306 279 225 147 129 129 129 129 126 127 130 129 130 127 128 129 126 120 112 126 151 161 177 199 208 184 137 149 113 54 44 39 38 34 30 31 32 34 34 30 26 21 18 15 13 11 9 9 8 6 5 4 0 359 356 353 351 349 345 341 338 335 331 328 325 323 321 319 318 317 316 312 306 299 295 292 289 283 280 279 277
298 323 319 305 272 205 155 136 133 131 126 124 121 123 127 124 122 121 121 123 124 119 109 108 116 130 149 161 166 127 126 159 156 97 70 36 31 34 34 34 36 37 34 29 25 19 17 17 14 12 10 8 8 6 5 2 359 357 354 352 350 348 345 341 338 335 332 328 324 321 319 317 316 317 316 315 313 307 301 297 293 288 282 279 276
313 313 306 278 205 155 145 136 130 125 117 117 117 120 122 118 115 115 116 119 120 117 110 108 110 112 116 116 109 107 122 145 158 159 151 34 18 22 31 35 39 40 33 28 21 15 17 19 16 13 10 7 6 5 3 360 356 354 353 351 349 345 343 341 338 335 331 328 323 318 315 312 311 312 312 315 316 311 305 300 296 293 287 282 276
304 306 298 202 164 151 146 134 124 119 115 115 119 121 118 113 112 112 112 112 112 113 111 109 108 104 100 99 96 93 97 106 113 110 115 110 26 10 8 19 29 30 29 29 20 17 18 19 19 14 8 6 5 2 360 357 353 351 351 349 347 345 344 342 338 334 330 326 322 318 314 310 308 307 308 311 313 312 308 302 298 296 292 286 277
305 299 186 166 160 151 141 128 121 118 117 120 119 117 113 111 110 108 106 104 103 105 106 104 103 101 99 95 90 87 82 80 82 81 80 87 61 31 349 2 15 15 18 23 19 19 15 14 17 12 6 5 2 359 357 354 351 350 349 347 346 346 345 342 338 334 330 325 320 317 313 310 307 305 305 306 307 310 310 303 298 297 295 288 282
304 215 157 160 156 147 135 125 122 120 120 122 119 114 112 110 107 104 101 99 98 97 97 97 96 96 94 90 85 81 75 68 67 67 67 65 50 41 26 20 20 8 12 19 22 20 10 7 9 5 5 4 357 356 355 352 351 350 347 346 346 346 343 340 338 334 330 325 320 316 312 309 307 304 303 303 303 306 308 303 297 295 293 290 286
268 164 157 161 155 143 131 125 124 124 124 123 120 116 113 110 105 103 101 97 96 93 93 93 90 87 85 84 82 77 73 68 65 63 60 57 44 26 26 29 35 12 8 16 21 18 8 4 360 358 2 0 354 353 353 353 352 348 345 346 345 343 342 341 340 337 334 329 322 317 313 309 306 303 300 300 300 301 302 302 297 290 289 290 288
193 165 165 163 153 141 132 130 129 129 129 126 123 119 114 112 109 106 103 99 98 95 92 90 86 85 82 80 78 74 72 68 66 65 60 56 46 29 23 21 25 15 5 14 19 14 8 3 357 357 358 356 353 353 354 354 351 347 348 346 343 343 345 346 345 342 337 333 326 320 316 312 308 305 303 301 299 299 299 300 297 290 287 287 287
184 170 170 163 152 144 137 136 135 132 133 129 125 121 116 115 113 108 105 102 99 96 91 88 85 84 81 78 75 72 71 69 66 63 59 56 49 41 30 15 16 14 5 13 17 8 5 2 357 355 354 354 355 356 357 354 350 350 349 345 344 347 347 347 345 340 334 329 325 319 314 312 309 307 305 302 300 297 297 297 297 294 288 285 286
183 172 171 163 152 146 141 139 138 136 136 131 125 121 120 119 114 110 107 103 100 95 89 87 85 83 80 77 74 73 70 68 65 62 59 55 49 45 35 17 14 18 14 11 10 6 1 359 358 354 352 355 357 358 358 354 352 352 349 347 348 348 346 344 339 333 330 326 324 320 316 313 309 306 303 300 298 296 294 294 296 297 292 287 285
181 173 169 161 152 146 143 142 141 138 135 130 124 122 122 120 116 111 107 102 98 95 90 87 83 80 79 75 72 73 70 67 65 61 59 55 49 47 40 28 17 14 17 12 8 9 0 358 360 355 351 356 0 360 357 356 355 353 352 351 351 348 342 335 331 331 332 331 330 328 325 322 316 311 306 302 301 300 296 292 294 297 296 290 285
176 172 167 159 153 148 146 144 142 139 133 128 125 124 124 120 115 110 104 101 100 96 90 85 82 78 76 74 72 71 68 65 63 58 57 54 50 47 42 39 27 9 7 7 4 2 359 360 359 355 355 358 1 360 358 359 357 355 356 355 353 346 333 327 332 336 335 331 330 328 326 323 321 318 313 308 306 304 299 294 293 296 298 293 284
173 172 167 160 155 151 149 146 143 138 133 131 129 127 124 118 113 108 104 102 101 97 89 83 82 77 74 74 72 70 67 63 60 57 56 53 49 45 41 42 38 21 6 359 357 354 356 1 357 354 359 1 359 1 2 1 356 354 357 357 351 338 328 335 342 337 329 327 325 324 322 320 320 319 315 310 307 304 301 299 297 297 299 296 286
174 173 168 164 159 154 151 148 143 138 136 136 132 128 122 116 113 110 106 104 102 96 90 85 82 78 76 75 72 70 66 61 58 56 54 52 48 43 40 40 38 34 20 0 349 348 352 359 359 357 360 2 0 1 0 356 351 353 358 356 346 336 339 348 342 330 328 329 326 321 319 319 318 316 314 311 309 306 304 303 300 298 297 297 290
176 175 172 168 162 155 152 148 143 140 142 140 133 127 122 118 116 113 109 106 102 97 90 86 84 81 78 76 73 69 65 61 58 55 53 51 48 43 39 37 33 33 30 10 345 346 349 351 359 1 358 1 3 358 354 353 352 354 358 355 345 342 347 345 335 332 333 331 325 321 320 319 318 317 317 316 313 309 306 303 300 297 295 293 289
178 177 175 170 163 156 151 147 145 145 145 139 132 128 126 124 121 117 111 105 101 97 92 89 87 85 81 77 74 70 67 65 59 55 51 49 47 42 39 37 29 26 27 15 345 347 353 350 356 1 356 358 2 355 349 354 356 355 356 354 346 342 342 335 332 334 331 325 323 324 325 324 323 322 321 320 316 312 309 302 297 294 291 288 285
181 178 175 169 162 156 150 148 150 149 144 136 133 133 132 130 126 119 111 105 102 99 95 93 90 88 84 79 76 72 69 68 63 57 53 50 47 40 39 37 28 20 20 17 352 345 354 354 355 359 356 355 358 354 350 353 356 356 355 353 345 338 337 335 333 332 327 323 325 329 331 331 328 324 322 322 320 317 314 308 301 294 289 287 286
180 178 175 169 162 157 153 154 154 149 143 139 137 137 137 135 128 119 112 107 107 103 99 97 93 90 88 83 79 76 71 68 65 60 55 55 51 41 39 36 27 19 16 18 6 345 349 354 353 354 356 355 353 352 350 349 352 355 353 349 344 338 335 334 333 332 327 324 328 331 331 330 328 326 324 324 321 320 319 314 308 300 293 289 287
179 178 175 170 163 159 159 159 155 149 146 144 141 141 140 135 126 119 117 115 112 106 102 100 96 93 91 87 83 79 73 67 63 59 54 54 51 42 38 32 22 17 17 18 10 348 344 350 349 348 351 352 350 348 346 344 348 352 351 347 344 340 338 335 333 333 329 327 330 330 330 331 330 327 323 320 317 317 319 318 314 309 303 296 292
180 178 175 169 165 165 165 162 156 152 152 150 146 145 142 136 129 125 124 121 115 110 107 104 101 99 96 91 87 81 75 68 62 58 54 52 50 43 37 32 17 12 19 19 8 356 346 342 344 345 344 346 346 345 343 343 346 348 347 348 346 340 339 340 336 334 332 330 330 328 329 332 331 327 324 321 319 318 319 322 322 320 316 307 299
183 180 175 170 170 171 168 164 160 156 156 155 151 148 144 140 138 136 133 126 119 117 113 109 107 103 100 94 89 83 77 71 64 58 53 50 49 43 38 35 22 16 22 17 7 4 353 338 340 342 341 342 343 343 343 344 346 344 342 348 348 340 336 338 335 333 333 333 332 330 331 333 331 331 330 326 323 323 323 325 326 325 325 322 314
183 182 177 174 174 173 170 168 164 160 160 158 155 152 149 148 146 145 139 129 126 125 118 114 111 107 102 96 90 84 78 72 64 57 51 48 47 42 37 35 29 25 24 15 6 4 353 343 340 339 340 342 341 342 344 345 346 343 341 345 347 342 336 335 335 334 334 335 333 331 333 335 334 333 331 327 329 330 327 325 324 325 328 328 325
183 184 181 178 176 174 174 173 169 165 163 161 159 158 156 155 153 148 140 134 133 132 124 119 115 110 105 97 89 83 75 69 62 54 48 44 44 40 35 33 31 28 25 15 7 0 351 347 345 341 342 342 340 341 342 344 345 345 344 342 342 341 337 336 338 336 334 335 334 332 334 335 335 333 330 330 332 330 325 323 322 324 328 325 320
184 185 184 182 177 175 177 176 172 170 167 164 164 164 162 161 157 150 142 139 139 136 129 124 119 112 105 98 91 83 73 65 57 50 45 42 42 38 33 32 31 28 25 19 9 0 355 352 347 344 343 342 342 341 343 345 345 347 350 343 335 336 337 337 340 340 336 335 336 335 336 336 336 335 333 332 330 324 321 321 324 327 322 310 303
184 185 187 184 179 178 179 178 175 174 170 169 170 168 167 166 160 153 146 143 144 139 131 127 120 111 105 101 95 84 71 60 49 43 39 36 37 35 31 31 30 27 25 22 14 6 2 355 348 346 345 343 344 343 344 345 344 347 352 346 334 332 335 335 339 343 341 338 337 336 338 339 336 334 333 332 329 325 323 323 322 316 304 295 295
187 186 186 185 182 182 182 180 179 178 175 175 174 170 169 167 162 157 151 149 149 144 135 127 120 113 107 101 95 85 73 60 48 39 33 30 30 30 28 28 27 25 25 23 18 13 8 360 351 349 346 344 344 344 342 343 346 350 352 347 337 334 335 334 336 343 345 342 338 336 339 340 335 333 333 330 328 327 324 319 310 300 296 297 299
191 188 185 185 185 185 185 183 182 182 181 179 174 171 171 168 164 160 156 155 153 147 139 130 121 116 108 100 94 84 73 62 51 42 34 29 28 27 25 25 25 24 23 22 20 16 13 7 357 350 346 343 344 344 342 343 350 355 353 345 339 336 337 335 335 340 344 342 338 335 339 342 337 332 333 331 328 326 321 317 312 307 306 306 303
194 190 186 185 187 187 188 187 186 186 185 180 175 174 174 172 168 162 160 161 156 150 146 139 133 127 116 108 100 87 76 67 57 44 35 33 30 27 25 23 23 23 22 22 20 16 14 11 3 353 347 345 344 344 345 348 353 356 354 348 341 337 335 334 336 338 340 340 339 337 341 345 341 334 334 333 329 325 321 320 317 314 316 316 311
195 192 188 187 189 190 189 189 189 189 188 182 177 176 176 176 172 163 163 167 160 157 158 151 147 145 133 122 110 96 84 70 58 45 38 35 29 27 27 24 20 19 19 20 18 15 14 11 5 358 353 350 347 346 351 356 357 356 355 350 343 337 334 333 335 337 337 337 336 336 340 346 345 338 335 333 329 327 324 321 319 318 321 323 318
197 193 191 190 192 192 191 191 192 193 191 185 181 179 177 180 176 166 170 175 166 166 169 158 151 149 143 137 130 116 88 63 53 44 39 36 32 31 32 28 24 20 18 17 15 13 13 11 6 2 359 356 352 351 358 4 2 359 358 350 340 336 334 332 332 336 339 337 335 334 338 344 347 339 334 333 331 329 327 322 322 322 319 318 315
200 197 196 195 195 194 194 194 194 196 194 187 185 182 179 182 178 170 176 179 173 176 178 165 154 151 148 146 143 138 112 73 47 36 35 36 37 34 30 28 26 21 18 18 17 14 13 11 6 3 2 1 358 358 5 8 4 3 1 350 338 335 334 332 332 340 344 339 337 338 338 341 345 339 335 336 332 329 330 327 325 321 315 315 317
204 203 201 200 199 196 196 197 197 199 195 189 188 186 183 184 180 174 180 182 178 184 183 170 160 157 157 152 148 148 141 96 44 38 34 34 39 35 29 30 27 14 11 18 22 19 15 12 8 4 3 4 3 6 10 8 4 3 360 347 340 339 337 338 341 344 347 343 339 341 339 340 345 340 335 337 335 333 335 331 326 323 321 323 324
207 206 205 204 202 200 200 200 200 201 198 192 191 188 187 187 180 177 184 186 186 191 188 176 167 166 167 162 157 161 163 133 40 41 35 34 40 36 30 33 29 16 13 18 21 20 17 14 8 4 4 4 7 9 9 6 4 3 355 343 344 344 339 343 345 343 346 345 339 341 342 343 348 344 337 338 340 339 339 336 332 330 327 326 326
210 209 207 207 205 204 204 203 203 204 201 195 193 191 190 189 182 179 186 191 194 198 192 181 174 175 179 175 168 169 170 165 69 43 39 37 41 36 31 33 27 17 15 18 19 16 12 8 6 6 7 9 11 10 6 3 2 1 355 344 345 345 341 343 344 340 344 347 340 340 343 347 352 352 344 341 344 346 346 343 341 339 334 331 331
211 212 210 210 210 209 208 207 206 207 204 199 196 194 192 190 186 183 185 194 201 201 195 188 182 182 187 187 180 176 173 172 144 64 40 36 39 34 33 32 23 15 14 16 13 9 9 11 12 11 9 8 11 10 5 2 360 0 1 353 347 346 342 342 342 340 345 349 342 340 342 346 351 355 353 346 342 346 349 349 345 343 340 339 337